STARLINK-37241, 68528

Orbit data source: Space-Track

STARLINK-37241, 68528 is a payload satellite owned by SpaceX/Seattle (US) in LEO that was launched on Mon, 30 Mar 2026 UTC via an FALCON 9 launch vehicle from the Air Force Eastern Test Range (AFETR). Payload-class satellites include a variety of spacecraft equipped with specific instruments for various scientific and technological missions. These include communications satellites like Starlink; space stations such as the ISS; scientific satellites like the Hubble; Earth observation satellites from companies like Planet Labs, Umbra, and HawkEye 360; GPS; miniature CubeSats for education and research; and military/defense satellites.

Loading next visibility...
Identifier
68528, 2026-068W
Orbit
LEO
Country
Flag of USUS
Related business
Manufacturer
SpaceX/Seattle
Mission
Operational spacecraft
Bus & Motor
STARLINK V2MO, Unknown motor
Mass
575 kg wet, ~530 kg dry
Launch date (UTC)
2026-03-30 (3 months ago)
Launch vehicle
FALCON 9
Launch site
Air Force Eastern Test Range (AFETR)
Object type
Payload
Rocket body
Debris
Shape & HBR
Unknown shape, 2.6 m
Radar Cross Section
Large (>1 m²)

Expand to show TLE details & history
Last TLE update: 20 hours ago

TLE from 20 hours ago
0 STARLINK-37241
1 68528U 26068W   26171.03675057  .00265991  00000-0  76451-2 0  9998
2 68528  53.1597  13.9506 0000823  92.3320 267.7777 15.34247997 12611
Epoch: 2026-06-20T00:52Z
TLE epoch observation values (Epoch: 2026-06-20T00:52:55.249Z)
Latitude
0.00001°
Longitude
92.46327°
Altitude
464.078 km
Speed
7.636 km/s
True Right ascension
00h 55m 48s
True Declination
0° 00' 00"
Sunlit
Object was in daylight at epoch
Visualization orbit readout
Latitude
Unknown
Longitude
Unknown
Altitude
Unknown
Speed
Unknown
Apparent Right ascension
Unknown
Apparent Declination
Unknown
Sunlit
N/A
Visualization observer readout
Local Sidereal Time
07:19:08
Azimuth
Unknown
Elevation
Unknown
Doppler factor
Unknown
Orbital elements
Apogee altitude
463.975 km
Perigee altitude
462.849 km
Semi-major axis
6,841.549 km
Eccentricity
0.00008
Inclination
53.1597°
RAAN
13.9506°
Arg. of periapsis
92.332°
True anomaly
267.76828°
Mean anomaly
267.7777°
Eccentric anomaly
267.77299°
Mean motion
3.83541 °/min
Orbital period
93.86 mins
BSTAR
0.0076451
Loading maneuver chart data...
Computing Atmospheric mass density...
Loading historical data...
Loading historical data...
Loading historical data...
Loading historical data...
Loading historical data...
Loading historical data...
Loading historical data...

Documentation

Showing up to 5 results
|